Weather History for New Iberia, LA

Change the Weather History Date:

Friday, April 26, 2013

  Actual Average Record
Temperature  
Mean Temperature 71 °F 71 °F  
Max Temperature 83 °F 82 °F 90 °F (1999)
Min Temperature 59 °F 60 °F 48 °F (1977)
Degree Days  
Heating Degree Days 0 0  
Month to date heating degree days 40 43  
Since 1 July heating degree days 1129 1407  
Cooling Degree Days 6 6  
Month to date cooling degree days 114 109  
Year to date cooling degree days 205 192  
Growing Degree Days 20 (Base 50)    
Moisture  
Dew Point 60 °F    
Average Humidity 75    
Maximum Humidity 90    
Minimum Humidity 60    
Precipitation  
Precipitation 0.00 in 0.10 in 2.60 in (1991)
Month to date precipitation 6.51 3.64  
Year to date precipitation 25.99 16.82  
Sea Level Pressure  
Sea Level Pressure 30.22 in    
Wind  
Wind Speed 8 mph (SE)    
Max Wind Speed 14 mph    
Max Gust Speed 22 mph    
Visibility 10 miles    
Events      
T = Trace of Precipitation, MM = Missing Value Source: NWS Daily Summary

Daily Weather History Graph

Daily Weather History Graph

Search for Another Location

Airport:

Trip Planner

Search our weather history database for the weather conditions in past years. The results will help you decide how hot, cold, wet, or windy it might be!

Date:

Astronomy

Apr. 26, 2013 Rise Set
Actual Time 6:29 AM CDT 7:41 PM CDT
Civil Twilight 6:03 AM CDT 8:07 PM CDT
Nautical Twilight 5:34 AM CDT 8:36 PM CDT
Astronomical Twilight 5:03 AM CDT 9:07 PM CDT
Moon 8:59 PM CDT (4/26) 7:00 AM CDT (4/26)
Length of Visible Light 14h 03m
Length of Day
13h 12m
Full, 99% of the Moon is Illuminated
Apr 26
Full
May 2
Last Quarter
May 9
New
May 17
First Quarter
May 24
Full

Hourly Weather History & Observations

Time (CDT) Temp. Heat Index Dew Point Humidity Pressure Visibility Wind Dir Wind Speed Gust Speed Precip Events Conditions
12:53 AM 63.0 °F - 48.9 °F 60% 30.27 in 10.0 mi East 3.5 mph - N/A   Clear
1:53 AM 62.1 °F - 48.9 °F 62% 30.24 in 10.0 mi ENE 5.8 mph - N/A   Clear
2:53 AM 61.0 °F - 48.9 °F 64% 30.24 in 10.0 mi ENE 5.8 mph - N/A   Clear
3:53 AM 60.1 °F - 51.1 °F 72% 30.21 in 10.0 mi East 5.8 mph - N/A   Clear
4:53 AM 60.1 °F - 51.1 °F 72% 30.21 in 10.0 mi East 4.6 mph - N/A   Clear
5:53 AM 60.1 °F - 52.0 °F 75% 30.21 in 10.0 mi East 5.8 mph - N/A   Clear
6:53 AM 61.0 °F - 53.1 °F 75% 30.23 in 10.0 mi East 5.8 mph - N/A   Clear
7:12 AM 60.8 °F - 53.6 °F 77% 30.24 in 10.0 mi East 4.6 mph - N/A   Mostly Cloudy
7:48 AM 64.4 °F - 55.4 °F 73% 30.24 in 10.0 mi East 5.8 mph - N/A   Scattered Clouds
7:53 AM 64.9 °F - 55.0 °F 70% 30.25 in 10.0 mi East 5.8 mph - N/A   Partly Cloudy
8:27 AM 68.0 °F - 55.4 °F 64% 30.25 in 10.0 mi East 6.9 mph - N/A   Mostly Cloudy
8:53 AM 69.1 °F - 57.0 °F 65% 30.25 in 10.0 mi East 8.1 mph - N/A   Overcast
9:53 AM 73.0 °F - 59.0 °F 61% 30.25 in 10.0 mi SE 9.2 mph - N/A   Overcast
10:53 AM 75.9 °F - 62.1 °F 62% 30.25 in 10.0 mi ESE 9.2 mph - N/A   Overcast
11:53 AM 77.0 °F - 63.0 °F 62% 30.25 in 10.0 mi SE 9.2 mph - N/A   Overcast
12:53 PM 78.1 °F - 64.0 °F 62% 30.24 in 10.0 mi South 8.1 mph - N/A   Overcast
1:32 PM 78.8 °F - 64.4 °F 61% 30.24 in 10.0 mi South 10.4 mph - N/A   Overcast
1:53 PM 80.1 °F 82.1 °F 66.0 °F 62% 30.23 in 10.0 mi South 11.5 mph - N/A   Overcast
2:53 PM 79.0 °F - 66.0 °F 64% 30.21 in 10.0 mi SSE 12.7 mph - N/A   Mostly Cloudy
3:53 PM 81.0 °F 83.0 °F 66.0 °F 60% 30.19 in 10.0 mi SE 8.1 mph - N/A   Mostly Cloudy
4:53 PM 79.0 °F - 64.9 °F 62% 30.18 in 10.0 mi South 11.5 mph - N/A   Scattered Clouds
5:28 PM 80.6 °F 82.7 °F 66.2 °F 61% 30.18 in 10.0 mi South 10.4 mph - N/A   Mostly Cloudy
5:53 PM 81.0 °F 83.3 °F 66.9 °F 62% 30.18 in 10.0 mi SSE 10.4 mph 17.3 mph N/A   Mostly Cloudy
6:20 PM 78.8 °F - 66.2 °F 65% 30.18 in 10.0 mi South 10.4 mph - N/A   Scattered Clouds
6:53 PM 78.1 °F - 66.9 °F 68% 30.18 in 10.0 mi South 10.4 mph - N/A   Clear
7:53 PM 75.0 °F - 66.9 °F 76% 30.17 in 10.0 mi SSE 8.1 mph - N/A   Clear
8:53 PM 73.0 °F - 66.9 °F 81% 30.19 in 10.0 mi SSE 6.9 mph - N/A   Clear
9:53 PM 72.0 °F - 66.9 °F 84% 30.20 in 10.0 mi SE 6.9 mph - N/A   Clear
10:53 PM 71.1 °F - 66.0 °F 84% 30.20 in 10.0 mi SE 8.1 mph - N/A   Clear
11:53 PM 69.1 °F - 66.0 °F 90% 30.19 in 10.0 mi SE 8.1 mph - N/A   Mostly Cloudy